Probability
10 10 6 6 6 3 3 0 0 0 0 0 0 0 0 0 0 0 0 0 0 0 0 0 0 0 0 0 0 0 0 0 0 0 0 0 0 0 0 0 0 0 0
10 10 10 6 6 3 3 0 0 0 0 0 0 0 0 0 0 0 0 0 0 0 0 0 0 0 0 0 0 0 0 0 0 0 0 0 0 0 0 0 0 0 0
10 10 10 6 6 6 6 3 0 0 0 0 0 0 0 0 0 0 0 0 0 0 0 0 0 0 0 0 0 0 0 0 0 0 0 0 0 0 0 0 0 0 0
13 10 13 6 6 6 6 3 0 0 0 0 0 0 0 0 0 0 0 0 0 0 0 0 0 0 0 0 0 0 0 0 0 0 0 0 0 0 0 0 0 0 0
16 16 13 10 6 6 6 3 3 0 0 0 0 0 0 0 0 0 0 0 0 0 0 0 0 0 0 0 0 0 0 0 0 0 0 0 0 0 0 0 0 0 0
6 6 6 6 3 3 3 3 3 3 0 0 0 0 0 0 0 0 0 0 0 0 0 0 0 0 0 0 0 0 0 0 0 0 0 0 0 0 0 0 0 0 0
3 3 6 6 3 3 3 3 3 3 0 0 0 0 0 0 0 0 0 0 0 0 0 0 0 0 0 0 0 0 0 0 0 0 0 0 0 0 0 0 0 0 0
3 3 6 6 10 3 3 3 3 0 0 0 0 0 0 0 0 0 0 0 0 0 0 0 0 0 0 0 0 0 0 0 0 0 0 0 0 0 0 0 0 0 0
6 6 3 6 6 6 3 3 0 0 0 0 0 0 0 0 0 0 0 0 0 0 0 0 0 0 0 0 0 0 0 0 0 0 0 0 0 0 0 0 0 0 0
6 6 6 6 6 6 0 0 0 0 0 0 0 0 0 0 0 0 0 0 0 0 0 0 0 0 0 0 0 0 0 0 0 0 0 0 0 0 0 0 0 0 0
10 10 3 0 0 0 0 0 0 0 0 0 0 0 0 0 0 0 0 0 0 0 0 0 0 0 0 0 0 0 0 0 0 0 0 0 0 0 0 0 0 0 0
3 0 0 0 0 0 0 0 0 0 0 0 0 0 0 0 0 0 0 0 0 0 0 0 0 0 0 0 0 0 0 0 0 0 0 0 0 0 0 0 0 0 0
0 0 0 0 0 0 0 0 0 0 0 0 0 0 0 0 0 0 0 0 0 0 0 0 0 0 0 0 0 0 0 0 0 0 0 0 0 0 0 0 0 0 0
0 0 0 0 0 0 0 0 0 0 0 0 0 0 0 0 0 0 0 0 0 0 0 0 0 0 0 0 0 0 0 0 0 0 0 0 0 0 0 0 0 0 0
0 0 0 0 0 0 0 0 0 0 0 0 0 0 0 0 0 0 0 0 0 0 0 0 0 0 0 0 0 0 0 0 0 0 0 0 0 0 0 0 0 0 0
0 0 0 0 0 0 0 0 0 0 0 0 0 0 0 0 0 0 0 0 0 0 0 0 0 0 0 0 0 0 0 0 0 0 0 0 0 0 0 0 0 0 0
3 3 0 0 0 0 0 0 0 0 0 0 0 0 0 0 0 0 0 0 0 0 0 0 0 0 0 0 0 0 0 0 0 0 0 0 0 0 0 0 0 0 0
3 3 3 3 3 0 0 0 0 0 0 0 0 0 0 0 0 0 0 0 0 0 0 0 0 0 0 0 0 0 0 0 0 0 0 0 0 0 0 0 0 0 0
3 3 3 3 3 3 3 3 0 0 0 0 0 0 0 0 0 0 0 0 0 0 0 0 0 0 0 0 0 0 0 0 0 0 0 0 0 0 0 0 0 0 0
0 0 0 3 3 3 3 3 3 3 0 0 0 0 0 0 0 0 0 0 0 0 0 0 0 0 0 0 0 0 0 0 0 0 0 0 0 0 0 0 0 0 0
0 0 0 0 0 3 3 3 3 3 3 3 3 0 0 0 0 0 0 0 0 0 0 0 0 0 0 0 0 0 0 0 0 0 0 0 0 0 0 0 0 0 0
0 0 0 0 0 0 0 3 3 3 3 3 3 0 0 0 0 0 0 0 0 0 0 0 0 0 0 0 0 0 0 0 0 0 0 0 0 0 0 0 0 0 0
0 0 0 0 0 0 0 0 0 3 3 3 3 0 0 0 0 0 0 0 0 0 0 0 0 0 0 0 0 0 0 0 0 0 0 0 0 0 0 0 0 0 0
0 0 0 0 0 0 0 0 0 0 0 0 0 0 0 0 0 0 0 0 0 0 0 0 0 0 0 0 0 0 0 0 0 0 0 0 0 0 0 0 0 0 0
0 0 0 0 0 0 0 0 0 0 0 0 0 0 0 0 0 0 0 0 0 0 0 0 0 0 0 0 0 0 0 0 0 0 0 0 0 0 0 0 0 0 0
0 0 0 0 0 0 0 0 0 0 0 0 0 0 0 0 0 0 0 0 0 0 0 0 0 0 0 0 0 0 0 0 0 0 0 0 0 0 0 0 0 0 0
Height
5828 5830 5832 5834 5837 5838 5840 5842 5844 5846 5848 5850 5851 5853 5855 5857 5859 5860 5862 5863 5864 5865 5866 5867 5867 5868 5868 5868 5868 5868 5868 5868 5867 5867 5866 5866 5865 5864 5863 5862 5861 5860 5860
5825 5827 5829 5832 5834 5836 5838 5839 5841 5843 5845 5847 5849 5851 5853 5854 5856 5857 5859 5860 5862 5863 5863 5864 5865 5865 5865 5865 5865 5865 5865 5865 5865 5864 5864 5863 5862 5861 5860 5859 5858 5857 5856
5822 5824 5826 5829 5831 5833 5835 5837 5838 5840 5842 5844 5846 5848 5850 5851 5853 5855 5856 5857 5859 5859 5860 5861 5861 5862 5862 5862 5862 5862 5862 5862 5861 5861 5860 5860 5859 5858 5857 5856 5855 5854 5852
5819 5821 5823 5826 5828 5830 5832 5834 5836 5838 5839 5841 5843 5845 5846 5848 5850 5851 5853 5854 5855 5856 5857 5857 5858 5858 5858 5858 5858 5858 5858 5858 5858 5857 5856 5856 5855 5854 5853 5852 5851 5849 5848
5815 5817 5820 5823 5825 5827 5829 5831 5833 5835 5836 5838 5840 5842 5843 5845 5846 5848 5849 5850 5852 5852 5853 5853 5854 5854 5854 5855 5854 5854 5854 5854 5853 5853 5852 5851 5850 5849 5848 5847 5846 5844 5842
5812 5814 5817 5819 5821 5824 5826 5828 5829 5831 5833 5835 5837 5838 5840 5841 5843 5844 5845 5846 5847 5848 5849 5849 5849 5850 5850 5850 5850 5850 5850 5849 5849 5848 5847 5846 5845 5844 5842 5841 5840 5838 5837
5809 5811 5814 5816 5818 5820 5822 5824 5826 5828 5830 5832 5833 5835 5836 5838 5839 5840 5841 5842 5843 5844 5844 5845 5845 5846 5846 5846 5846 5845 5845 5844 5844 5843 5842 5840 5839 5838 5836 5835 5834 5832 5830
5806 5808 5810 5813 5815 5817 5819 5821 5823 5825 5826 5828 5830 5831 5832 5834 5835 5836 5837 5838 5838 5839 5840 5840 5840 5841 5841 5841 5841 5840 5839 5838 5838 5837 5836 5834 5833 5831 5830 5828 5826 5825 5822
5802 5804 5807 5809 5811 5813 5815 5817 5819 5821 5823 5824 5826 5827 5828 5829 5830 5831 5832 5833 5833 5834 5835 5835 5835 5835 5835 5835 5835 5834 5833 5832 5831 5830 5829 5827 5825 5824 5822 5821 5818 5816 5814
5799 5801 5803 5805 5807 5810 5812 5814 5816 5818 5819 5821 5822 5823 5824 5825 5826 5826 5827 5828 5828 5829 5829 5829 5829 5829 5829 5829 5828 5828 5827 5825 5824 5823 5821 5819 5818 5816 5814 5812 5810 5808 5805
5795 5797 5799 5802 5804 5806 5808 5810 5812 5813 5815 5816 5818 5819 5819 5820 5821 5821 5822 5822 5823 5823 5823 5823 5823 5823 5822 5822 5821 5820 5819 5818 5816 5815 5813 5811 5809 5807 5804 5802 5800 5798 5795
5792 5793 5795 5798 5800 5802 5804 5806 5807 5809 5810 5811 5812 5813 5814 5814 5815 5815 5816 5816 5816 5817 5817 5817 5816 5816 5815 5814 5814 5813 5811 5810 5809 5807 5805 5802 5800 5797 5795 5792 5789 5787 5783
5788 5790 5792 5793 5795 5797 5799 5801 5802 5803 5805 5806 5807 5808 5808 5809 5809 5809 5809 5810 5810 5810 5810 5809 5809 5809 5808 5807 5806 5804 5802 5801 5799 5798 5795 5793 5790 5787 5784 5781 5778 5775 5772
5784 5785 5787 5789 5790 5792 5794 5795 5797 5798 5799 5800 5801 5801 5802 5803 5803 5803 5803 5803 5802 5802 5802 5801 5801 5800 5800 5798 5797 5795 5793 5791 5790 5788 5785 5783 5780 5777 5773 5770 5767 5764 5760
5779 5781 5782 5784 5785 5787 5788 5790 5791 5792 5793 5794 5794 5795 5795 5796 5796 5796 5795 5795 5795 5794 5793 5793 5793 5792 5791 5789 5787 5785 5784 5782 5779 5777 5774 5772 5769 5765 5762 5758 5755 5751 5748
5774 5775 5777 5778 5780 5781 5782 5783 5784 5785 5786 5786 5787 5787 5788 5788 5788 5788 5787 5787 5786 5786 5785 5784 5783 5782 5781 5780 5778 5776 5773 5771 5769 5766 5763 5760 5757 5753 5750 5746 5742 5738 5735
5768 5770 5771 5772 5773 5774 5775 5775 5776 5777 5777 5778 5779 5779 5779 5779 5779 5779 5779 5778 5777 5776 5776 5775 5773 5772 5771 5769 5767 5765 5762 5760 5757 5754 5751 5748 5744 5740 5737 5733 5729 5725 5721
5762 5763 5764 5765 5766 5767 5767 5768 5768 5769 5769 5769 5770 5770 5770 5770 5770 5769 5769 5768 5767 5766 5765 5764 5763 5761 5759 5757 5755 5753 5750 5747 5744 5741 5738 5734 5731 5727 5723 5719 5715 5711 5707
5756 5757 5758 5759 5759 5760 5760 5760 5760 5760 5760 5760 5760 5760 5760 5760 5760 5759 5758 5757 5756 5755 5754 5753 5751 5749 5747 5745 5742 5740 5737 5734 5731 5728 5724 5721 5717 5713 5709 5705 5701 5696 5692
5749 5750 5751 5752 5752 5752 5752 5752 5752 5752 5752 5752 5751 5750 5750 5750 5749 5749 5748 5746 5745 5744 5743 5741 5740 5737 5735 5732 5729 5726 5723 5720 5717 5714 5710 5706 5702 5698 5694 5690 5686 5682 5678
5742 5743 5744 5745 5745 5745 5745 5745 5745 5744 5744 5743 5742 5742 5741 5740 5739 5737 5736 5735 5734 5732 5731 5729 5727 5724 5721 5718 5715 5712 5709 5706 5703 5699 5696 5692 5688 5684 5680 5676 5671 5667 5663
5736 5736 5737 5737 5737 5737 5737 5737 5736 5736 5735 5734 5733 5732 5731 5730 5728 5727 5726 5724 5722 5720 5718 5716 5713 5710 5708 5705 5701 5698 5695 5692 5689 5685 5681 5677 5673 5669 5665 5661 5657 5653 5649
5729 5729 5729 5729 5729 5729 5729 5728 5727 5727 5726 5724 5723 5722 5721 5719 5718 5716 5714 5712 5710 5707 5705 5702 5699 5696 5693 5690 5687 5684 5681 5678 5674 5670 5667 5663 5659 5655 5650 5646 5642 5638 5634
5722 5722 5721 5721 5721 5721 5720 5719 5718 5717 5716 5714 5713 5711 5710 5708 5706 5704 5702 5700 5697 5695 5691 5688 5686 5683 5679 5676 5673 5670 5666 5663 5659 5655 5651 5648 5644 5640 5636 5632 5628 5624 5620
5714 5714 5714 5713 5713 5712 5711 5710 5708 5707 5705 5703 5702 5700 5698 5696 5694 5692 5689 5687 5684 5681 5678 5675 5672 5669 5666 5662 5659 5655 5652 5648 5644 5640 5636 5632 5629 5625 5621 5617 5613 5610 5606
5707 5707 5706 5705 5704 5703 5702 5700 5698 5697 5695 5693 5690 5688 5686 5684 5681 5679 5676 5674 5671 5668 5665 5661 5658 5655 5651 5648 5644 5640 5636 5633 5629 5625 5621 5617 5614 5610 5606 5603 5599 5596 5593
Wind_Speed
17 17 16 16 16 16 15 15 14 14 14 14 15 14 14 13 13 12 12 12 12 12 11 11 12 12 12 12 12 11 11 11 11 11 12 12 12 12 12 13 13 13 14
17 17 17 17 16 16 16 16 15 15 15 15 15 14 14 14 14 14 13 13 12 13 13 13 13 13 13 13 13 13 12 12 12 13 13 13 13 14 14 14 15 15 16
16 17 18 17 16 15 15 15 15 15 15 15 15 15 15 15 14 14 14 13 13 13 14 14 14 14 14 14 14 13 13 13 14 14 15 15 15 15 15 16 16 17 18
17 17 17 17 17 16 16 16 16 15 15 15 16 16 16 16 16 15 15 15 15 15 15 15 15 15 15 15 14 14 15 15 16 16 17 17 18 18 18 18 18 19 20
17 17 18 18 18 17 17 17 17 16 16 16 16 16 16 16 16 16 16 16 16 15 16 16 16 16 15 15 15 15 16 17 17 18 19 19 20 20 20 20 21 21 22
17 18 18 18 18 18 18 17 17 17 17 16 17 16 16 16 16 16 16 16 16 16 16 16 16 16 16 17 17 17 18 18 19 20 21 21 22 22 22 22 23 24 25
18 18 18 18 18 18 18 17 17 18 17 17 17 17 16 16 16 16 17 17 17 17 18 18 18 18 18 18 19 19 19 20 21 22 23 23 23 24 24 25 26 27 27
18 18 18 18 18 18 18 18 18 18 18 18 17 16 16 16 16 17 18 19 19 19 19 19 19 20 20 20 20 21 21 22 23 24 24 24 24 25 26 27 28 29 30
17 18 18 19 18 18 18 18 17 17 17 17 17 17 17 18 18 19 19 19 19 20 20 20 20 21 21 21 22 22 23 24 25 25 26 27 28 29 29 30 31 31 32
18 18 18 18 18 19 19 18 18 18 18 18 18 18 19 19 19 20 20 20 21 21 22 22 22 23 23 23 24 25 25 26 27 27 28 29 30 31 32 33 34 34 35
19 19 19 19 18 19 19 19 19 19 19 20 20 20 20 20 21 21 21 22 22 23 24 24 24 24 25 26 26 27 27 28 28 29 30 31 32 33 34 35 35 36 37
19 20 19 20 19 19 20 20 21 21 21 21 21 21 21 22 22 21 22 22 23 23 24 24 24 25 26 27 28 29 29 29 30 31 32 33 34 36 36 37 38 39 40
20 20 20 20 21 21 21 21 20 21 21 22 22 22 22 23 23 23 23 24 24 25 25 26 26 27 28 29 30 31 31 31 32 33 34 35 36 37 38 39 40 42 43
21 21 21 20 21 21 21 22 22 23 23 24 24 24 24 25 25 26 27 27 27 27 28 29 29 29 30 31 32 33 32 33 34 35 37 38 39 40 41 42 43 44 44
21 21 22 22 22 22 23 23 24 25 25 25 25 26 26 27 28 28 29 30 30 30 31 31 31 32 33 34 34 34 35 36 36 38 39 40 41 42 43 44 44 45 45
21 21 22 22 23 24 25 25 26 27 28 28 28 29 29 30 30 30 31 32 32 31 32 32 33 34 35 36 37 37 38 38 39 40 41 42 43 44 44 45 46 46 47
22 22 22 23 24 25 26 27 27 28 29 30 30 31 32 32 33 33 34 35 35 35 35 36 36 36 37 38 39 40 41 42 42 43 44 45 46 46 47 47 47 48 48
24 24 24 24 25 26 27 27 29 30 30 31 32 33 34 34 35 35 35 36 37 37 37 37 38 38 39 41 42 44 45 45 46 47 47 48 48 49 48 48 49 50 51
25 24 24 25 25 26 27 27 28 30 31 32 34 35 35 35 36 36 37 37 37 38 38 38 40 41 42 44 45 46 47 48 48 48 49 49 49 50 50 50 50 51 51
24 24 24 24 25 26 27 28 28 28 29 30 31 33 34 35 36 37 38 38 39 40 40 41 42 44 45 46 46 47 48 48 49 49 49 50 50 50 50 50 51 50 50
23 23 24 25 25 26 27 28 29 29 29 29 30 30 32 34 36 37 38 39 40 40 41 42 43 44 45 46 47 47 48 48 48 48 49 49 50 50 50 50 50 50 50
22 23 23 24 25 26 27 28 29 30 30 31 33 33 33 33 35 37 39 40 41 42 42 44 44 44 45 46 47 48 48 49 49 49 49 50 50 50 51 51 51 51 50
23 23 24 25 26 27 28 28 29 30 31 32 33 34 35 36 38 39 40 41 42 43 44 45 45 45 46 47 48 48 48 48 49 50 50 50 50 51 51 50 50 49 48
24 25 25 26 26 27 28 30 31 32 32 33 34 36 37 39 40 40 41 42 43 43 44 44 45 45 46 47 48 48 49 50 50 51 50 50 50 51 50 48 47 47 46
24 25 25 26 27 28 29 30 31 32 33 34 35 37 38 39 39 40 41 42 43 43 43 44 45 46 47 48 48 49 50 50 51 51 50 49 49 49 48 46 46 45 44
24 25 26 27 28 29 30 32 34 34 35 36 37 38 38 39 39 40 41 42 43 44 44 45 45 46 47 47 48 48 49 49 48 48 47 47 47 47 46 46 44 44 43
Wind_Direction
227 225 225 224 227 228 226 226 227 226 228 227 227 226 227 228 230 234 234 237 241 244 249 254 259 263 266 270 272 274 276 278 280 282 285 287 289 290 290 290 289 290 292
225 224 225 226 228 229 227 226 226 227 229 229 227 225 226 230 233 235 237 242 246 249 253 257 260 262 266 269 271 273 275 278 279 280 283 285 287 288 290 291 290 290 291
225 224 223 225 228 228 227 226 226 227 230 228 227 227 230 233 236 239 243 248 252 255 257 260 262 264 267 269 269 270 274 277 278 280 282 284 286 288 288 290 290 290 290
230 224 222 224 228 229 226 225 225 228 229 229 229 232 236 237 240 243 248 253 256 259 261 262 262 264 265 267 270 271 273 274 276 279 281 282 285 285 286 287 288 288 289
228 223 222 224 228 230 229 228 228 231 232 231 232 236 239 242 245 246 250 254 257 261 263 263 261 262 265 270 273 274 274 274 275 278 280 281 283 285 285 286 287 288 289
228 225 223 224 228 229 230 232 232 230 231 234 236 239 241 244 247 251 254 256 257 261 264 264 264 265 266 270 273 275 276 277 277 279 283 283 283 284 285 287 288 289 290
226 224 224 225 226 227 228 231 232 231 233 239 240 240 242 245 251 256 257 258 259 261 264 266 266 266 268 270 272 276 278 279 280 283 284 285 284 284 286 288 289 289 290
226 225 224 226 229 231 229 229 233 235 237 239 242 243 246 251 255 258 260 261 261 263 264 268 269 268 268 271 273 276 278 280 281 282 284 284 285 286 288 288 290 290 290
230 229 229 231 231 230 230 232 236 237 239 241 242 246 250 254 256 260 261 261 262 264 266 268 270 270 271 273 275 278 280 281 282 282 284 285 285 287 288 289 290 290 290
230 231 230 228 230 231 232 235 238 240 242 246 249 250 253 256 258 261 262 262 264 266 268 270 270 272 273 275 278 279 281 282 283 285 286 286 287 288 289 290 290 290 290
232 234 231 231 232 233 236 238 241 244 247 250 251 254 256 258 259 262 264 264 265 266 270 272 271 272 274 276 278 280 280 282 283 285 286 287 288 289 289 290 290 291 291
232 232 233 233 234 237 238 241 246 248 250 252 253 255 256 258 259 262 265 266 267 269 271 273 272 273 275 277 279 281 282 283 284 285 287 288 290 290 291 291 291 291 292
233 234 235 239 241 242 243 244 247 249 250 252 255 256 257 260 261 263 266 268 269 270 271 272 271 273 275 277 280 282 282 283 285 286 287 288 290 290 290 291 292 293 294
236 237 239 242 243 244 246 248 249 251 253 256 258 259 260 262 264 265 267 269 270 269 270 271 272 275 277 278 281 281 283 285 286 286 287 288 289 290 290 291 292 293 294
238 240 241 243 245 246 247 250 252 254 257 259 260 262 263 264 266 268 269 272 272 270 270 272 274 277 279 280 282 283 283 284 286 288 288 289 290 290 291 291 292 294 294
243 243 244 246 248 250 250 252 255 257 258 260 262 263 264 266 268 270 272 272 272 271 272 274 275 277 279 280 282 282 284 285 286 288 289 290 290 291 292 292 293 293 293
245 246 249 252 253 254 256 258 258 260 261 261 262 264 265 267 269 271 272 273 273 274 274 274 275 277 279 281 282 283 284 286 287 288 289 290 291 292 293 293 294 294 294
246 249 253 256 258 259 260 261 261 264 264 263 263 265 266 268 269 270 272 273 274 275 274 275 276 277 279 280 282 283 284 285 286 288 289 290 292 292 293 293 293 294 294
250 252 254 258 260 262 263 264 265 266 267 267 266 266 268 269 271 272 273 274 274 276 277 277 277 278 279 281 283 284 285 286 286 288 290 291 292 293 293 293 294 294 294
252 255 257 259 261 263 264 265 267 268 271 272 270 269 270 272 273 274 274 274 275 277 278 280 280 280 281 282 283 284 285 286 287 289 290 291 292 293 293 293 293 294 294
254 256 257 260 263 264 265 267 269 270 272 273 275 275 275 274 274 274 275 276 277 278 280 281 283 284 284 284 285 286 286 287 288 290 291 291 292 292 292 293 293 294 294
257 260 261 263 265 266 268 269 271 273 273 274 275 276 276 276 276 276 277 278 280 281 282 283 284 285 285 285 286 287 288 288 289 289 291 291 291 292 292 292 293 294 294
260 263 265 267 268 268 269 270 273 275 275 275 275 276 276 276 277 277 278 279 281 282 283 284 285 286 286 287 287 288 289 290 290 290 290 291 291 291 291 292 292 293 293
265 266 268 269 270 270 272 272 274 275 276 277 276 276 276 277 278 279 280 281 283 284 285 286 287 287 288 288 288 289 290 290 291 290 290 290 290 291 291 291 291 292 293
266 268 270 271 272 273 274 274 275 276 277 277 277 277 278 279 280 281 282 283 284 286 288 288 289 289 289 289 290 290 290 290 290 290 289 289 290 290 290 291 291 291 292
270 271 273 273 274 275 276 277 278 279 279 279 280 281 282 283 284 285 285 286 286 287 289 290 290 290 290 290 290 290 290 291 291 291 291 290 290 290 290 290 290 291 291